Weather History for Sarasota, FL

Change the Weather History Date:

Monday, November 19, 2012

  Actual Average Record
Temperature  
Mean Temperature 61 °F 68 °F  
Max Temperature 72 °F 78 °F 89 °F (1960)
Min Temperature 50 °F 59 °F 36 °F (1923)
Degree Days  
Heating Degree Days 4 1  
Month to date heating degree days 15 9  
Since 1 July heating degree days 15 12  
Cooling Degree Days 0 5  
Month to date cooling degree days 65 113  
Year to date cooling degree days 3713 3257  
Growing Degree Days 11 (Base 50)    
Moisture  
Dew Point 53 °F    
Average Humidity 80    
Maximum Humidity 100    
Minimum Humidity 53    
Precipitation  
Precipitation 0.00 in 0.05 in 1.40 in (1972)
Month to date precipitation 0.35 1.24  
Year to date precipitation 44.04 49.79  
Sea Level Pressure  
Sea Level Pressure 30.12 in    
Wind  
Wind Speed 6 mph (NNE)    
Max Wind Speed 16 mph    
Max Gust Speed 22 mph    
Visibility 9 miles    
Events      
T = Trace of Precipitation, MM = Missing Value Source: NWS Daily Summary

Daily Weather History Graph

Daily Weather History Graph

Search for Another Location

Airport:

Trip Planner

Search our weather history database for the weather conditions in past years. The results will help you decide how hot, cold, wet, or windy it might be!

Date:

Astronomy

Nov. 19, 2012 Rise Set
Actual Time 6:54 AM EST 5:37 PM EST
Civil Twilight 6:29 AM EST 6:01 PM EST
Nautical Twilight 6:01 AM EST 6:30 PM EST
Astronomical Twilight 5:33 AM EST 6:58 PM EST
Moon 12:07 PM EST (11/19) 11:48 PM EST (11/19)
Length of Visible Light 11h 32m
Length of Day
10h 42m
Waxing Crescent, 40% of the Moon is Illuminated
Nov 19
Waxing Crescent
Nov 20
First Quarter
Nov 28
Full
Dec 6
Last Quarter
Dec 13
New

Hourly Weather History & Observations

Time (EST) Temp. Dew Point Humidity Pressure Visibility Wind Dir Wind Speed Gust Speed Precip Events Conditions
12:53 AM 55.9 °F 53.1 °F 90% 30.16 in 10.0 mi NE 3.5 mph - N/A   Clear
1:53 AM 55.0 °F 52.0 °F 89% 30.15 in 10.0 mi Calm Calm - N/A   Clear
2:53 AM 54.0 °F 52.0 °F 93% 30.15 in 10.0 mi North 3.5 mph - N/A   Clear
3:53 AM 54.0 °F 52.0 °F 93% 30.15 in 9.0 mi Calm Calm - N/A   Clear
4:43 AM 51.8 °F 51.8 °F 100% 30.15 in 1.8 mi Calm Calm - N/A   Clear
4:51 AM 51.8 °F 50.0 °F 94% 30.15 in 4.0 mi Calm Calm - N/A   Clear
4:53 AM 52.0 °F 51.1 °F 97% 30.15 in 6.0 mi NE 3.5 mph - N/A   Clear
5:53 AM 53.1 °F 52.0 °F 96% 30.15 in 10.0 mi NNE 3.5 mph - N/A   Clear
6:53 AM 54.0 °F 52.0 °F 93% 30.16 in 6.0 mi NE 4.6 mph - N/A   Clear
7:53 AM 55.9 °F 55.0 °F 97% 30.16 in 7.0 mi NNE 3.5 mph - N/A   Clear
8:53 AM 60.1 °F 54.0 °F 80% 30.17 in 10.0 mi NNE 6.9 mph - N/A   Clear
9:53 AM 64.0 °F 54.0 °F 70% 30.17 in 10.0 mi NNE 6.9 mph - N/A   Clear
10:53 AM 66.0 °F 53.1 °F 63% 30.15 in 10.0 mi North 10.4 mph - N/A   Clear
11:53 AM 69.1 °F 54.0 °F 58% 30.13 in 10.0 mi North 13.8 mph - N/A   Clear
12:53 PM 70.0 °F 53.1 °F 55% 30.10 in 10.0 mi NNW 13.8 mph 20.7 mph N/A   Clear
1:53 PM 71.1 °F 54.0 °F 55% 30.08 in 10.0 mi North 10.4 mph - N/A   Clear
2:53 PM 70.0 °F 55.0 °F 59% 30.06 in 10.0 mi NNW 10.4 mph - N/A   Clear
3:53 PM 69.1 °F 55.0 °F 61% 30.06 in 10.0 mi NNW 6.9 mph - N/A   Clear
4:53 PM 68.0 °F 55.0 °F 63% 30.07 in 10.0 mi NNE 5.8 mph - N/A   Clear
5:53 PM 63.0 °F 54.0 °F 72% 30.08 in 10.0 mi ENE 6.9 mph - N/A   Clear
6:53 PM 60.1 °F 54.0 °F 80% 30.09 in 10.0 mi ENE 8.1 mph - N/A   Clear
7:53 PM 59.0 °F 54.0 °F 83% 30.10 in 10.0 mi ENE 5.8 mph - N/A   Mostly Cloudy
8:53 PM 59.0 °F 54.0 °F 83% 30.11 in 10.0 mi NE 5.8 mph - N/A   Overcast
9:53 PM 59.0 °F 53.1 °F 81% 30.11 in 10.0 mi NE 8.1 mph - N/A   Overcast
10:53 PM 59.0 °F 53.1 °F 81% 30.11 in 10.0 mi NE 4.6 mph - N/A   Overcast
11:53 PM 59.0 °F 53.1 °F 81% 30.09 in 10.0 mi NE 5.8 mph - N/A   Overcast